Carbondale, IL

12:39 PM CST on December 14, 2019 (GMT -0600)
Southern Illinois

Weather History for KMDH - October, 2019

Change the Weather History Date:

Wednesday, October 16, 2019

  Actual Average Record
Temperature  
Mean Temperature 48 °F -  
Max Temperature 57 °F 70 °F 89 °F (1924)
Min Temperature 37 °F 44 °F 24 °F (1991)
Degree Days  
Heating Degree Days 17    
Moisture  
Dew Point 37 °F    
Average Humidity 65    
Maximum Humidity 93    
Minimum Humidity 47    
Precipitation  
Precipitation 0.00 in - - ()
Sea Level Pressure  
Sea Level Pressure 30.06 in    
Wind  
Wind Speed 11 mph (NW)    
Max Wind Speed 20 mph    
Max Gust Speed 34 mph    
Visibility 10 miles    
Events      
Averages and records for this station are not official NWS values.
T = Trace of Precipitation, MM = Missing Value Source: NWS Daily Summary

Daily Weather History Graph

Daily Weather History Graph

Search for Another Location

Airport or City:

Astronomy

Oct. 16, 2019 Rise Set
Actual Time 7:06 AM CDT 6:18 PM CDT
Civil Twilight 6:39 AM CDT 6:44 PM CDT
Nautical Twilight 6:09 AM CDT 7:15 PM CDT
Astronomical Twilight 5:38 AM CDT 7:45 PM CDT
Moon 8:14 PM CDT (10/16) 9:34 AM CDT (10/16)
Length of Visible Light 12h 05m
Length of Day
11h 12m
Waning Gibbous, 92% of the Moon is Illuminated
Oct 16
Waning Gibbous
Oct 21
Last Quarter
Oct 27
New
Nov 4
First Quarter
Nov 12
Full

Hourly Weather History & Observations

Time (CDT) Temp. Windchill Dew Point Humidity Pressure Visibility Wind Dir Wind Speed Gust Speed Precip Events Conditions
12:52 AM 57.0 °F - 39.9 °F 53% 29.94 in 10.0 mi NNW 19.6 mph 34.5 mph N/A   Overcast
1:52 AM 52.0 °F - 39.0 °F 61% 29.97 in 10.0 mi NNW 11.5 mph - N/A   Clear
2:52 AM 50.0 °F - 35.1 °F 57% 29.98 in 10.0 mi NNW 12.7 mph - N/A   Clear
3:52 AM 48.0 °F - 35.1 °F 61% 29.98 in 10.0 mi NW 10.4 mph - N/A   Clear
4:52 AM 46.0 °F 41.4 °F 35.1 °F 66% 30.00 in 10.0 mi NW 9.2 mph - N/A   Clear
5:52 AM 45.0 °F 41.8 °F 36.0 °F 71% 30.01 in 10.0 mi NW 5.8 mph - N/A   Clear
6:52 AM 44.1 °F 40.1 °F 36.0 °F 73% 30.02 in 10.0 mi NW 6.9 mph - N/A   Clear
7:52 AM 45.0 °F 40.6 °F 36.0 °F 71% 30.04 in 10.0 mi NW 8.1 mph - N/A   Clear
8:52 AM 48.0 °F - 37.0 °F 66% 30.08 in 10.0 mi NW 11.5 mph 24.2 mph N/A   Clear
9:52 AM 51.1 °F - 37.9 °F 61% 30.08 in 10.0 mi NNW 12.7 mph 23.0 mph N/A   Partly Cloudy
10:52 AM 55.0 °F - 37.9 °F 53% 30.08 in 10.0 mi NNW 15.0 mph 21.9 mph N/A   Scattered Clouds
11:52 AM 55.0 °F - 36.0 °F 49% 30.08 in 10.0 mi NW 16.1 mph 25.3 mph N/A   Mostly Cloudy
12:52 PM 55.0 °F - 37.0 °F 51% 30.08 in 10.0 mi NNW 11.5 mph 21.9 mph N/A   Mostly Cloudy
1:52 PM 57.0 °F - 37.0 °F 47% 30.08 in 10.0 mi NNW 9.2 mph 23.0 mph N/A   Mostly Cloudy
2:52 PM 55.9 °F - 36.0 °F 47% 30.08 in 10.0 mi NW 12.7 mph 23.0 mph N/A   Mostly Cloudy
3:52 PM 54.0 °F - 37.0 °F 53% 30.10 in 10.0 mi NW 13.8 mph 19.6 mph N/A   Overcast
4:52 PM 54.0 °F - 37.0 °F 53% 30.10 in 10.0 mi NNW 9.2 mph 20.7 mph N/A   Partly Cloudy
5:52 PM 52.0 °F - 37.0 °F 57% 30.10 in 10.0 mi NW 10.4 mph - N/A   Mostly Cloudy
6:52 PM 48.0 °F - 37.0 °F 66% 30.10 in 10.0 mi NNW 3.5 mph - N/A   Clear
7:52 PM 44.1 °F 42.5 °F 37.9 °F 79% 30.11 in 10.0 mi West 3.5 mph - N/A   Clear
8:52 PM 39.9 °F - 37.0 °F 89% 30.10 in 10.0 mi Calm Calm - N/A   Clear
9:52 PM 39.9 °F - 37.0 °F 89% 30.11 in 10.0 mi Calm Calm - N/A   Clear
10:52 PM 41.0 °F 39.0 °F 39.0 °F 93% 30.10 in 10.0 mi North 3.5 mph - N/A   Clear
11:52 PM 37.0 °F - 35.1 °F 93% 30.11 in 10.0 mi Calm Calm - N/A   Clear